Sponsored Ads

Johnny Mize

1948 Bowman

John Robert “Johnny” Mize (January 7, 1913 - June 2, 1993) homered in all fifteen ballparks in use during his career and crushed three homers in a game six times in his career. Big Cat played for the St. Louis Cardinals (1936-1941), the New York Giants (1942, 1946-1949) and the New York Yankees (1949-1953). The ten-time All-Star selection often paced the National League for home runs, winning the HR crown four times from 1939-1948, twice each with the Cardinals and Giants. In 1939, Mize won both the home run and batting titles, missing out on the Triple Crown by 20 RBI. As a member of the New York Yankees, Mize helped the Bronx team win five-straight World Series championships from 1949-1953. In 1952, the big, burly first baseman won the World Series MVP award as he batted .400 while clouting six home runs. He is the only player in the history of baseball to hit 50 or more home runs in a season while striking out less than 50 times. Johnny Mize retired with 2,011 hits, 1,337 RBI and a .312 career batting average. The Veterans Committee elected John Robert Mize to the National Baseball Hall of Fame in 1981.

Condition Census

Pos Grade Thumbnail Pedigree and History
1 GEM MT 10
1 GEM MT 10
2 MINT 9 (14)

Prices By Grade

1948 BOWMAN 4 JOHNNY MIZE

Grade Most Recent Price Average Price SMR Price Population POP Higher
GEM - MT 10 $5,141.00 2
MINT 9 $726.00 $726.00 $800.00 14 2
NM - MT 8 $390.66 $549.24 $250.00 82 18
NM 7 $185.50 $180.33 $125.00 115 117
EX - MT 6 $157.50 $91.26 $70.00 163 241
EX 5 $276.75 $145.75 $45.00 145 423
VG - EX 4 $81.00 $77.33 113 583
VG 3 $93.88 $68.03 61 708
GOOD 2 $24.00 $37.13 45 781
FR 1.5 $14.99 5 831
PR 1 12 836
Auth $27.00 8 849

Auction Prices Realized

Date Price Grade Lot # Auction House Auction/Seller Type Cert
09/22/2021 $94 3 363546835785 eBay dansantiquesandmore Auction 49804522
07/31/2021 $391 8 144119849908 eBay pwcc_auctions Auction 09093456
07/19/2021 $500 8 164963573119 eBay tdurso Auction 51049659
06/15/2021 $186 7 144063602335 eBay pwcc_auctions Auction 01367407
06/15/2021 $158 6 144063602332 eBay pwcc_auctions Auction 01603994
06/07/2021 $277 5 202 Goldin Auctions June Card Auction Ending June 5 Auction 22757840
04/30/2021 $339 8 194064767816 eBay hurricanesfan13 Auction 24610163
04/30/2021 $227 7.5 133734331806 eBay sparklecitycomics Auction 20567827
04/16/2021 $81 4 114760232587 eBay grrttjnsn Auction 50471073
04/14/2021 $664 8 143996528147 eBay pwcc_auctions Auction 15240244
04/14/2021 $185 7 353441641577 eBay pwcc_auctions Auction 05102116
04/10/2021 $566 8 114751186129 eBay goodsports1990 Auction 01033278
04/09/2021 $170 5 233904998490 eBay veers21pt Best Offer 09203432
04/01/2021 $125 4 324517579169 eBay rjdou812 Best Offer 48568635
03/20/2021 $51 4 324519970060 eBay the_card_depot Auction 41867754
03/17/2021 $510 8 373490384278 eBay probstein123 Auction 03007516
03/15/2021 $621 8 402729234370 eBay pwcc_auctions Auction 07000571
03/04/2021 $42 3 313431711865 eBay brandonsbreaks Auction 45981625
02/26/2021 $171 7 233901448226 eBay cjcollect4 Auction 09023441
02/19/2021 $122 5 363290018382 eBay probstein123 Auction 42282773
01/26/2021 $100 4 353366952998 eBay the_magic_loogie Best Offer 50471073
01/25/2021 $24 2 353366056081 eBay jawil10986 Best Offer 46990752
12/29/2020 $45 4 274613810699 eBay mlberns52 Best Offer 15198369
11/23/2020 $50 2 164509500888 eBay davidbvintage Auction 42196654
11/11/2020 $103 6 353257482874 eBay pwcc_auctions Auction 14875206
11/11/2020 $80 6 373315287618 eBay probstein123 Auction 11356754
10/31/2020 $65 5 (MC) 254715173695 eBay denver_card_shows Best Offer 46850168
10/19/2020 $52 5 133540280249 eBay 2011apples79 Auction 30235100
10/16/2020 $100 7 (OC) 153988610132 eBay raffieleo Best Offer 41570011
10/14/2020 $255 8 143769464360 eBay pwcc_auctions Auction 09093767
10/13/2020 $726 9 777 Memory Lane, Inc. 20th Anniversary Auction Auction 07115141
09/16/2020 $255 8 143720656697 eBay pwcc_auctions Auction 08149588
09/16/2020 $101 6 402412205403 eBay pwcc_auctions Auction 16018462
09/15/2020 $900 9 53723 Heritage Auctions The Partnerone Collection Sports Card Catalog Auct Auction 25950570
08/31/2020 $5,141 10 51 SCP Auctions Summer Premier Auction 2020 Auction 06007167
08/17/2020 $55 2 143537303655 eBay sewall Best Offer 44191874
08/14/2020 $105 5.5 114271107104 eBay amerlegends Buy It Now 45758659
08/10/2020 $210 7 143638231590 eBay amerlegends Buy It Now 45758661
08/03/2020 $42 3 114335807196 eBay ewansgirl1 Best Offer 04430295
07/08/2020 $305 8 254546395841 eBay tigerguy1978 Best Offer 11022897
06/30/2020 $115 6 123089577656 eBay somersetvelvet Best Offer 19373096
06/30/2020 $80 5 303137539795 eBay vintagesportscardsonline Best Offer 42282773
06/24/2020 $50 3 383601929208 eBay amerlegends Best Offer 45758657
06/23/2020 $85 5 383601929334 eBay amerlegends Best Offer 45758660
06/19/2020 $30 2 (MC) 293618567011 eBay cbcardss3 Best Offer 45501865
06/15/2020 $126 7 42082 Heritage Auctions Sunday Sports Collectibles Weekly Online Auction Auction 08005285
06/12/2020 $120 7 8 Sirius Sports Auctions Sirius Sports Cards Auction # 264 - Ends 6/11/20 Auction 17609162
06/11/2020 $45 4 283901684844 eBay akpsz Auction 45888068
06/07/2020 $300 8 352837503947 eBay tbh39 Buy It Now 09050602
06/05/2020 $49 4 333610544661 eBay frank-cassa Auction 44830576
05/26/2020 $90 5.5 114235526247 eBay garbschopshop Buy It Now 44565087
05/22/2020 $89 6 383545025300 eBay sundiegocollectibles Best Offer 44345845
05/21/2020 $80 4 233535027119 eBay vintage_sports_cards Buy It Now 46000006
04/30/2020 $80 5 133134977289 eBay bbcemporium Best Offer 28527985
04/16/2020 $181 7 372993057599 eBay probstein123 Buy It Now 45663959
04/14/2020 $125 5 292993965635 eBay cassidys_sportscards Best Offer 22757840
04/05/2020 $52 3 324083124532 eBay gmcards2 Buy It Now 26358053
03/30/2020 $121 7 114157635208 eBay parlorcitycollectibles Auction 26079506
03/19/2020 $37 4 372985070755 eBay probstein123 Auction 44830576
03/06/2020 $31 4 233502987779 eBay comc_consignment Auction 41867754
03/02/2020 $66 4 223926919900 eBay ilccjim Auction 31763656
03/01/2020 $21 2.5 184183456285 eBay bonventre2006 Auction 22498935
02/11/2020 $61 4 352956904307 eBay pwcc_auctions Auction 43502724
01/27/2020 $93 5 223865995774 eBay cowboysalltheway13 Auction 27125773
12/28/2019 $50 2 372879822424 eBay cavaliercards Best Offer 43999495
12/19/2019 $71 5 383232715856 eBay sundiegocollectibles Buy It Now 44345846
12/08/2019 $113 7 401976686237 eBay pwcc_auctions Auction 22701794
12/02/2019 $54 5 13 Sirius Sports Auctions Sirius Sports Cards Auction # 251 - Ends 11/29/19 Auction 44934171
11/18/2019 $54 5 4 Sirius Sports Auctions Sirius Sports Cards Auction # 250 - Ends 11/14/19 Auction 43600523
08/29/2019 $239 8 36 Sirius Sports Auctions Sirius Sports Cards Auction # 245 - Ends 8/29/19 Auction 06053284
08/11/2019 $269 8.5 352740700033 eBay pwcc_auctions Auction 42748422
07/28/2019 $40 2 303227503793 eBay vintagesportscardsonline Buy It Now 42370417
07/24/2019 $80 6 323844923160 eBay smrcollectibles Buy It Now 22701934
07/22/2019 $290 8.5 422 Memory Lane, Inc. Summer 2019 Auction 14371355
07/18/2019 $47 6 352707006294 eBay steve_novella Auction 90530186
07/15/2019 $243 8 143320587988 eBay pwcc_auctions Auction 01033278
07/10/2019 $27 Auth 233277885135 eBay yanks87 Auction 26324266
06/17/2019 $77 6 153518065385 eBay mame-95 Auction 18720061
06/11/2019 $175 7 362610640959 eBay tbh39 Best Offer 27551881
06/10/2019 $149 7 254170997876 eBay quality*cards Buy It Now 42663064
05/29/2019 $27 4 153498782331 eBay rotisserieduck Auction 25913212
05/17/2019 $75 5 254177110845 eBay vintageamerica13 Best Offer 22223338
05/09/2019 $38 5 202665570471 eBay lhcomics Auction 42808536
05/08/2019 $225 8 401757487193 eBay pwcc_auctions Auction 01033278
05/07/2019 $121 7 26 Mile High Card Company Extra Innings April 2019 Auction 43078320
04/20/2019 $228 8 51491 Heritage Auctions 2019 April 18 - 19 Spring Sports Card Catalog Auc Auction 09001856
04/16/2019 $18 2 372649000172 eBay probstein123 Auction 42370417
04/13/2019 $26 2 133012363550 eBay buythatcard Auction 42046655
04/09/2019 $360 8 352630832302 eBay pwcc_auctions Auction 07000571
04/07/2019 $228 8 41039 Heritage Auctions Sunday Internet Sports Collectibles Auction Auction 01079375
04/06/2019 $290 8.5 422 Memory Lane, Inc. Spring Break Rarities Auction 2019 Auction 14371355
03/28/2019 $54 5 115 Sirius Sports Auctions Sirius Sports Cards Auction # 234 - Ends 3/28/19 Auction 27248315
03/07/2019 $18 3 323710302899 eBay splonge Auction 42231155
02/25/2019 $69 5 143108677158 eBay bbcexchange Buy It Now 42379692
02/19/2019 $85 6 273662020435 eBay hatchdacx Best Offer 27475622
02/17/2019 $40 8 (MC) 254121460016 eBay vonslag Auction 21841450
02/11/2019 $162 7 401699166265 eBay pwcc_auctions Auction 40865550
02/10/2019 $44 8 (MC) 254107976400 eBay vonslag Auction 21841450
01/31/2019 $262 8 60 Goodwin and Co. Auctions Masterpieces and Uncommon Commons 77 Auction 07000571
01/25/2019 $50 3 153324136879 eBay iconsportscards Buy It Now 41173662
01/23/2019 $51 5 382735336490 eBay probstein123 Auction 42282773
01/13/2019 $193 8 143082413320 eBay spat_dog Auction 09093456
12/30/2018 $30 4.5 202546286599 eBay whitevettmh Auction 28504992
12/26/2018 $90 5 292171530937 eBay cassidys_sportscards Best Offer 17105711
12/18/2018 $90 7 143044690354 eBay pwcc_auctions Auction 06435590
12/16/2018 $132 7 43023 Heritage Auctions Sunday Internet Sports Collectibles Auction End Auction 08005285
09/29/2018 $23 3.5 192666988082 eBay nymetsgiantsfan Auction 30235099
09/10/2018 $141 7 352449052872 eBay pwcc_auctions Auction 40905540
08/13/2018 $56 6 352422298930 eBay cavaliercards Auction 40929092
08/12/2018 $81 6 352421373316 eBay pwcc_auctions Auction 30235098
08/12/2018 $139 Auth 142892272519 eBay pwcc_auctions Auction 25923494
08/12/2018 $27 7 (MK) 153130786594 eBay ekamens1967 Auction 21851408
08/10/2018 $58 6 382530933042 eBay galaxy_traveller Auction 25242366
07/22/2018 $75 5 163121739207 eBay thecardboardcollective Buy It Now 30235100
07/22/2018 $70 6 382517339301 eBay jacsports Auction 90530186
07/09/2018 $82 6 401560075413 eBay pwcc_auctions Auction 28442995
06/12/2018 $95 6 372326088480 eBay probstein123 Auction 04124100
06/11/2018 $47 5 401546196119 eBay pwcc_auctions Auction 30235100
06/11/2018 $35 3.5 142817862266 eBay pwcc_auctions Auction 30235099
06/10/2018 $47 4 173342333103 eBay joesclosetatl2014 Auction 40859259
06/07/2018 $40 4 392057051272 eBay blues78 Auction 17969805
06/05/2018 $93 6 382476713250 eBay probstein123 Auction 02549519
06/01/2018 $192 7 352348355338 eBay tbh39 Best Offer 27551881
05/25/2018 $125 7 282902169845 eBay estatejewelryemporium395 Best Offer 30031279
05/22/2018 $56 5 382463582457 eBay probstein123 Auction 06126593
05/21/2018 $86 8 173318417109 eBay doublegdaddy1 Auction 14940364
04/26/2018 $150 7 382423853664 eBay tonyetrade Buy It Now 01367407
04/11/2018 $240 8 222914893885 eBay samsmossport427 Best Offer 03760956
04/10/2018 $240 8 401515704346 eBay pwcc_auctions Auction 14940364
04/06/2018 $40 4 123058932106 eBay cardsandcoins Buy It Now 28850977
03/31/2018 $80 5 253519428793 eBay jeeper4wd Best Offer 22353667
03/11/2018 $812 9 401500830028 eBay pwcc_auctions Auction 06463304
03/11/2018 $97 7 401500830026 eBay pwcc_auctions Auction 27874486
03/03/2018 $115 6 362257528285 eBay tbh39 Best Offer 27704022
02/20/2018 $33 4.5 263494280428 eBay coresclassics6t25 Auction 28650988
02/11/2018 $25 2 362232727613 eBay magichouseofcards Auction 90280969
02/09/2018 $789 9 112806721010 eBay jtur5101 Buy It Now 05424594
02/07/2018 $40 4.5 202213847074 eBay grays Auction 28504992
01/24/2018 $85 6 183034078522 eBay clammy61 Buy It Now 25242366
01/23/2018 $789 9 112557099391 eBay jtur5101 Buy It Now 05424594
01/22/2018 $96 7 263444083734 eBay sports-cards-forever Auction 50039072
01/21/2018 $29 3 192425603945 eBay brettssportscardsforsale Auction 27499650
01/14/2018 $85 6 172867616834 eBay carrie-star Best Offer 40391708
01/10/2018 $137 7 273009713411 eBay tennistar80 Buy It Now 27969757
01/05/2018 $22 2 362204553186 eBay sewall Best Offer 28107535
01/01/2018 $99 6 62 Sirius Sports Auctions Sirius Sports Cards Auction # 215 - Ends 7/5/18 Auction 40929092
12/23/2017 $87 5 352225339841 eBay tbh39 Best Offer 21308348
12/22/2017 $210 8 253313147267 eBay thecardfarm Auction 04165984
12/20/2017 $59 6 122867204982 eBay shermanway13 Buy It Now 16043368
12/03/2017 $97 7 152804094440 eBay clydepepper Auction 02504486
11/30/2017 $24 3 372151264226 eBay tommygun128 Buy It Now 27499650
11/18/2017 $40 3 232535626045 eBay stclaircards Buy It Now 27834475
11/13/2017 $36 4.5 142564403448 eBay pwcc_auctions Auction 27600374
11/09/2017 $35 5 51 Sirius Sports Auctions Sirius Sports Cards Auction # 198 - Ends 11/9/17 Auction 28169148
11/06/2017 $34 4 362142544219 eBay allstar-cards Auction 27467203
11/03/2017 $32 3 311989061836 eBay imac7065 Auction 01096636
11/01/2017 $79 6 253109319239 eBay quality*cards Buy It Now 23980889
10/26/2017 $131 7.5 272894429874 eBay seattlesupersonics1975 Auction 27218760
10/23/2017 $255 8 331649090504 eBay maraya Buy It Now 24610163
10/15/2017 $99 7 232516498133 eBay rtbrandom1 Auction 27969757
10/12/2017 $39 5.5 26 Sirius Sports Auctions Sirius Sports Cards Auction # 196 - Ends 10/12/17 Auction 27849303
09/11/2017 $733 9 352156773169 eBay pwcc_auctions Auction 01113234
09/11/2017 $209 8 142494479832 eBay pwcc_auctions Auction 14940364
09/05/2017 $42 4 202046689854 eBay the.cardfather Buy It Now 23327809
09/05/2017 $119 7 142491143089 eBay hoodyscollectibles Auction 26469461
09/03/2017 $660 9 282627428740 eBay acme.cards Auction 05424594
08/31/2017 $722 9 382207443594 eBay probstein123 Auction 26941902
08/29/2017 $42 5 362078388802 eBay teri781 Auction 27783656
08/24/2017 $33 3 202018035624 eBay jlj941 Buy It Now 27392880
08/22/2017 $265 8 192273502035 eBay lthotshoe Buy It Now 22411305
08/09/2017 $36 3 142461020178 eBay pwcc_auctions Auction 27596476
08/06/2017 $56 5 172800264783 eBay will19782012 Auction 27524321
08/03/2017 $201 8 362049203309 eBay probstein123 Auction 22411305
08/01/2017 $75 6 172774112196 eBay trambo Best Offer 12131946
07/29/2017 $55 5 302397935424 eBay cardagents Buy It Now 27530080
07/23/2017 $56 6 272752158687 eBay garjohnso-510 Auction 26404639
07/21/2017 $70 4 311856063096 eBay www.707sportscards.com Best Offer 24092593
07/20/2017 $125 7 122607449603 eBay pvballcards2011 Buy It Now 27187391
07/19/2017 $101 7 253042744484 eBay alittlebitofeverythingus Auction 16390719
07/07/2017 $39 4 382145160939 eBay dadsvintagesportscards Auction 26504088
06/26/2017 $160 8 232304924530 eBay epawnamerica Buy It Now 09093456
06/25/2017 $67 6 263039551789 eBay 1948leaf-psa Auction 27475622
06/03/2017 $124 7.5 263007387621 eBay vintagecards12 Auction 26868270
06/01/2017 $157 7.5 382095461159 eBay probstein123 Auction 27218760
06/01/2017 $47 5 132211257960 eBay bbcexchange Buy It Now 27248315
05/28/2017 $80 6 192173988614 eBay scotts_vintage_cards Buy It Now 22730991
05/28/2017 $76 6 132196986145 eBay gregmorriscards Auction 26404639
05/08/2017 $130 7 292095545405 eBay furryanimal2 Buy It Now 25420514
05/06/2017 $4,393 10 558 Memory Lane, Inc. Spring 2017 Holy Grail Rarities Auction Auction 06007167
05/03/2017 $42 5 382060413971 eBay probstein123 Auction 27125773
04/30/2017 $37 4 382058643316 eBay just_collect Auction 25426982
03/19/2017 $38 5 381996678308 eBay emoncards Auction 26889498
03/13/2017 $58 6 351996643229 eBay pwcc_auctions Auction 26408066
03/07/2017 $77 6 361918311028 eBay missinglinks Auction 26804163
03/07/2017 $58 6 132111404132 eBay gtpcamaroz Auction 22730991
02/28/2017 $231 8 401278259964 eBay pwcc_auctions Auction 22295254
01/02/2017 $15 1.5 152371103650 eBay rotisserieduck Auction 26502576
12/09/2016 $178 8 134 Goodwin and Co. Auctions Masterpieces and Uncommon Commons LXIX Auction 07000571
11/02/2016 $16 4 122198808537 eBay carterscards2006 Auction 26391394
10/27/2016 $191 8 131979372353 eBay sport_cards_gems Auction 12322820
10/13/2016 $33 5 381802763492 eBay paulratt1 Auction 25111570
10/12/2016 $57 6 351861697711 eBay pwcc_auctions Auction 16018462
10/02/2016 $990 9 142126062806 eBay pwcc_auctions Auction 06463304
10/02/2016 $35 8 (OC) 252559944827 eBay mikesmemorabilia63 Auction 04226231
09/18/2016 $23 4 302070114850 eBay absolutekane Auction 04778290
09/07/2016 $734 9 401178464433 eBay pwcc_auctions Auction 01113234
08/02/2016 $90 7 161 Greg Bussineau Auctions Summer 2016 Vintage Trading Cards Auction Auction 25348825
08/15/2015 $289 8 1031 Memory Lane, Inc. Summer Break 2015 Auction Auction 09001198
05/10/2015 $1,097 9 5 Memory Lane, Inc. Spring Break 2015 Auction Auction 01113234
07/14/2014 $210 8 272 Greg Bussineau Auctions Summer 2014 Vintage Trading Cards and Memorabilia Auction 08994317
01/09/2014 $73 6 15 Sirius Sports Auctions Sirius Sports Cards Auction # 98 - Ends 1/9 Auction 22375022
11/16/2012 $699 9 414 Goodwin and Co. Auctions Masterpieces and Uncommon Commons XLV Auction 06463304
08/18/2012 $177 8 285 Memory Lane, Inc. Historical Rarities Auction 11022897
10/21/2011 $214 8 249 Mile High Card Company October 2011 Auction 01060051
05/09/2009 $377 8 445 Goodwin and Co. Auctions Masterpieces and Uncommon Commons XXI Auction 03007516
05/09/2009 $118 7 847 Goodwin and Co. Auctions Masterpieces and Uncommon Commons XXI Auction 07063959
03/26/2009 $690 9 519 Mile High Card Company March 2009 Auction Auction 09056166
09/19/2008 $646 9 424 Goodwin and Co. Auctions Goodwins Commons and Masterpieces XVII Auction 09056166
09/19/2008 $236 8 434 Goodwin and Co. Auctions Goodwins Commons and Masterpieces XVII Auction 08149588
03/08/2008 $759 9 342 Goodwin and Co. Auctions Masterpieces and Uncommon Commons XXIV Auction 09056166
12/16/2007 $861 9 337 Memory Lane, Inc. Serious Rarities - December 8th Auction Auction 50036509
12/16/2007 $378 8 336 Memory Lane, Inc. Serious Rarities - December 8th Auction Auction 09050602
01/01/2007 $49 6 10117 Heritage Auctions Monthly Internet Sports Auction Jan 1, 2007 Auction 03196610
08/12/2005 $983 9 74 Memory Lane, Inc. The Buried Treasure III Card & Ball Auction Auction 05424594
05/29/2005 $222 8 12120 Heritage Auctions Amazing Sports Auction May 29, 2005 Auction 60040591
04/29/2005 $3,284 10 18 Memory Lane, Inc. The Buried Treasure II Card & Memorabilia Auction Auction 06007167
Sponsored Ads